�������l�o���
Date,Time,MP-1(��Sv/h),MP-2(��Sv/h),MP-3(��Sv/h),MP-4(��Sv/h),MP-5(��Sv/h),MP-6(��Sv/h),MP-7(��Sv/h),MP-8(��Sv/h),����,����(m/s),���J
2020/12/28,00:00,0.679,0.971,0.618,1.227,0.861,0.383,0.676,0.638,��,4.7,��
2020/12/28,00:10,0.680,0.971,0.619,1.227,0.860,0.382,0.677,0.636,��,5.2,��
2020/12/28,00:20,0.678,0.973,0.616,1.226,0.862,0.383,0.675,0.637,��,5.3,��
2020/12/28,00:30,0.679,0.972,0.614,1.226,0.861,0.383,0.676,0.636,��쐼,4.9,��
2020/12/28,00:40,0.678,0.973,0.616,1.227,0.862,0.380,0.676,0.636,��,5.2,��
2020/12/28,00:50,0.678,0.973,0.617,1.225,0.861,0.381,0.677,0.637,��쐼,4.6,��
2020/12/28,01:00,0.679,0.971,0.615,1.226,0.861,0.383,0.675,0.637,��,4.7,��
2020/12/28,01:10,0.683,0.971,0.616,1.228,0.862,0.382,0.678,0.637,��,4.5,��
2020/12/28,01:20,0.681,0.972,0.616,1.227,0.862,0.383,0.677,0.636,��,5.2,��
2020/12/28,01:30,0.680,0.972,0.616,1.226,0.861,0.383,0.677,0.638,��,5.1,��
2020/12/28,01:40,0.679,0.973,0.616,1.226,0.862,0.382,0.677,0.638,��,5.8,��
2020/12/28,01:50,0.681,0.973,0.614,1.224,0.862,0.382,0.678,0.638,��,6.4,��
2020/12/28,02:00,0.680,0.974,0.616,1.226,0.861,0.383,0.677,0.639,��,6.2,��
2020/12/28,02:10,0.681,0.974,0.616,1.227,0.864,0.382,0.677,0.637,��,6.5,��
2020/12/28,02:20,0.681,0.973,0.617,1.229,0.862,0.383,0.677,0.637,��,6.5,��
2020/12/28,02:30,0.680,0.972,0.617,1.228,0.860,0.382,0.677,0.638,��,6.5,��
2020/12/28,02:40,0.680,0.973,0.618,1.227,0.861,0.382,0.677,0.638,��,7.1,��
2020/12/28,02:50,0.679,0.973,0.618,1.225,0.859,0.383,0.678,0.638,��,7.3,��
2020/12/28,03:00,0.681,0.973,0.617,1.228,0.861,0.381,0.677,0.639,��,8.1,��
2020/12/28,03:10,0.681,0.973,0.616,1.227,0.863,0.381,0.677,0.639,��,7.9,��
2020/12/28,03:20,0.680,0.973,0.615,1.230,0.860,0.383,0.679,0.638,��,7.3,��
2020/12/28,03:30,0.682,0.971,0.618,1.230,0.863,0.382,0.678,0.638,��,7.5,��
2020/12/28,03:40,0.680,0.972,0.617,1.226,0.862,0.383,0.678,0.638,��,5.9,��
2020/12/28,03:50,0.680,0.972,0.616,1.230,0.863,0.382,0.679,0.638,��쐼,4.6,��
2020/12/28,04:00,0.682,0.972,0.617,1.226,0.863,0.384,0.678,0.636,��,4.1,��
2020/12/28,04:10,0.682,0.974,0.617,1.225,0.862,0.384,0.678,0.638,��,5.2,��
2020/12/28,04:20,0.682,0.974,0.616,1.226,0.863,0.383,0.678,0.637,��쐼,4.8,��
2020/12/28,04:30,0.680,0.971,0.617,1.226,0.861,0.383,0.677,0.638,��쐼,4.4,��
2020/12/28,04:40,0.681,0.972,0.617,1.226,0.863,0.383,0.677,0.641,�쐼,2.9,��
2020/12/28,04:50,0.679,0.972,0.618,1.227,0.861,0.383,0.678,0.636,�쐼,2.3,��
2020/12/28,05:00,0.681,0.971,0.617,1.227,0.862,0.383,0.677,0.638,�쐼,2.3,��
2020/12/28,05:10,0.680,0.972,0.617,1.229,0.863,0.384,0.678,0.639,��쐼,1.4,��
2020/12/28,05:20,0.681,0.973,0.617,1.229,0.863,0.383,0.679,0.639,��,1.5,��
2020/12/28,05:30,0.681,0.972,0.617,1.229,0.860,0.383,0.679,0.639,��,2.0,��
2020/12/28,05:40,0.682,0.971,0.617,1.227,0.861,0.383,0.677,0.637,��쐼,1.2,��
2020/12/28,05:50,0.680,0.972,0.617,1.227,0.862,0.383,0.677,0.638,-,CALM,��
2020/12/28,06:00,0.681,0.973,0.615,1.227,0.861,0.383,0.679,0.638,�k�k��,0.9,��
2020/12/28,06:10,0.682,0.972,0.616,1.225,0.863,0.383,0.679,0.639,�k,1.1,��
2020/12/28,06:20,0.681,0.974,0.618,1.228,0.862,0.382,0.678,0.639,�k�k��,0.9,��
2020/12/28,06:30,0.681,0.970,0.616,1.227,0.861,0.384,0.679,0.638,�k�k��,1.5,��
2020/12/28,06:40,0.681,0.973,0.617,1.229,0.864,0.383,0.679,0.638,�k��,1.5,��
2020/12/28,06:50,0.682,0.973,0.618,1.231,0.863,0.383,0.679,0.638,�k�k��,0.9,��
2020/12/28,07:00,0.682,0.973,0.617,1.231,0.863,0.382,0.677,0.638,�k�k��,1.7,��
2020/12/28,07:10,0.683,0.974,0.618,1.229,0.863,0.384,0.677,0.639,�k�k��,2.6,��
2020/12/28,07:20,0.682,0.974,0.618,1.231,0.863,0.384,0.679,0.640,�k,3.6,��
2020/12/28,07:30,0.683,0.974,0.618,1.228,0.862,0.384,0.679,0.638,�k�k��,4.9,��
2020/12/28,07:40,0.683,0.974,0.616,1.227,0.864,0.383,0.680,0.639,�k�k��,4.4,��
2020/12/28,07:50,0.682,0.975,0.618,1.229,0.860,0.383,0.677,0.637,�k�k��,4.5,��
2020/12/28,08:00,0.680,0.974,0.617,1.228,0.862,0.385,0.678,0.638,�k�k��,4.7,��
2020/12/28,08:10,0.681,0.972,0.616,1.229,0.862,0.383,0.679,0.638,�k��,3.9,��
2020/12/28,08:20,0.681,0.974,0.620,1.229,0.863,0.383,0.679,0.638,�k�k��,4.1,��
2020/12/28,08:30,0.680,0.975,0.618,1.226,0.862,0.383,0.679,0.639,�k�k��,2.6,��
2020/12/28,08:40,0.683,0.973,0.617,1.228,0.863,0.383,0.679,0.638,�k,1.5,��
2020/12/28,08:50,0.683,0.976,0.618,1.229,0.864,0.384,0.680,0.640,�k,1.2,��
2020/12/28,09:00,0.683,0.974,0.617,1.230,0.864,0.383,0.679,0.639,�k�k��,0.6,��
2020/12/28,09:10,0.683,0.976,0.619,1.229,0.863,0.383,0.678,0.639,�k,1.7,��
2020/12/28,09:20,0.682,0.975,0.617,1.229,0.864,0.384,0.678,0.637,�k�k��,2.5,��
2020/12/28,09:30,0.683,0.977,0.620,1.230,0.865,0.384,0.679,0.638,�k,2.3,��
2020/12/28,09:40,0.682,0.977,0.618,1.231,0.863,0.384,0.679,0.640,�k,2.5,��
2020/12/28,09:50,0.681,0.975,0.618,1.229,0.865,0.382,0.678,0.637,�k�k��,2.2,��
2020/12/28,10:00,0.684,0.971,0.616,1.228,0.862,0.383,0.676,0.639,�k�k��,2.6,��
2020/12/28,10:10,0.681,0.975,0.617,1.230,0.864,0.383,0.676,0.638,�k�k��,3.0,��
2020/12/28,10:20,0.682,0.971,0.621,1.230,0.863,0.384,0.677,0.638,�k�k��,3.6,��
2020/12/28,10:30,0.682,0.971,0.618,1.228,0.865,0.384,0.678,0.639,�k,3.7,��
2020/12/28,10:40,0.682,0.973,0.619,1.228,0.863,0.385,0.677,0.639,�k,4.2,��
2020/12/28,10:50,0.683,0.974,0.618,1.228,0.863,0.384,0.676,0.639,�k�k��,4.0,��
2020/12/28,11:00,0.682,0.972,0.619,1.231,0.864,0.384,0.676,0.638,�k�k��,4.1,��
2020/12/28,11:10,0.682,0.971,0.618,1.229,0.863,0.384,0.675,0.639,�k�k��,3.8,��
2020/12/28,11:20,0.683,0.973,0.618,1.228,0.863,0.385,0.676,0.640,�k�k��,3.8,��
2020/12/28,11:30,0.682,0.973,0.620,1.230,0.865,0.384,0.676,0.640,�k��,3.1,��
2020/12/28,11:40,0.681,0.974,0.619,1.231,0.865,0.385,0.677,0.641,�k,3.1,��
2020/12/28,11:50,0.683,0.974,0.618,1.232,0.865,0.384,0.677,0.641,�k�k��,2.5,��
2020/12/28,12:00,0.682,0.973,0.618,1.230,0.866,0.385,0.678,0.639,�k��,3.0,��
2020/12/28,12:10,0.681,0.975,0.617,1.229,0.866,0.384,0.677,0.640,���k��,2.9,��
2020/12/28,12:20,0.681,0.974,0.618,1.228,0.865,0.384,0.679,0.640,�k��,3.2,��
2020/12/28,12:30,0.683,0.975,0.619,1.230,0.865,0.385,0.678,0.640,�k��,3.4,��
2020/12/28,12:40,0.683,0.974,0.618,1.226,0.864,0.384,0.680,0.641,�k�k��,3.3,��
2020/12/28,12:50,0.684,0.976,0.616,1.231,0.863,0.384,0.680,0.638,�k�k��,3.2,��
2020/12/28,13:00,0.682,0.973,0.618,1.227,0.865,0.384,0.680,0.640,�k�k��,3.8,��
2020/12/28,13:10,0.681,0.975,0.619,1.229,0.865,0.384,0.680,0.639,�k�k��,3.7,��
2020/12/28,13:20,0.681,0.975,0.618,1.228,0.866,0.385,0.681,0.637,�k�k��,4.1,��
2020/12/28,13:30,0.682,0.971,0.617,1.229,0.866,0.386,0.679,0.637,�k�k��,4.5,��
2020/12/28,13:40,0.684,0.972,0.617,1.230,0.866,0.383,0.680,0.637,�k�k��,4.1,��
2020/12/28,13:50,0.683,0.971,0.616,1.231,0.865,0.384,0.680,0.635,�k�k��,4.4,��
2020/12/28,14:00,0.684,0.973,0.619,1.227,0.863,0.385,0.681,0.637,�k�k��,4.2,��
2020/12/28,14:10,0.684,0.972,0.617,1.230,0.865,0.384,0.681,0.637,�k�k��,4.0,��
2020/12/28,14:20,0.681,0.974,0.619,1.230,0.864,0.385,0.680,0.637,�k�k��,3.9,��
2020/12/28,14:30,0.683,0.974,0.619,1.230,0.864,0.386,0.680,0.637,�k�k��,4.3,��
2020/12/28,14:40,0.683,0.975,0.619,1.228,0.866,0.383,0.679,0.640,�k�k��,4.0,��
2020/12/28,14:50,0.682,0.975,0.620,1.229,0.864,0.384,0.681,0.640,�k,4.1,��
2020/12/28,15:00,0.681,0.975,0.619,1.228,0.864,0.383,0.680,0.639,�k,3.2,��
2020/12/28,15:10,0.681,0.976,0.619,1.228,0.866,0.384,0.680,0.641,�k,4.1,��
2020/12/28,15:20,0.681,0.975,0.617,1.229,0.866,0.383,0.680,0.639,�k,4.0,��
2020/12/28,15:30,0.681,0.975,0.618,1.227,0.865,0.384,0.679,0.639,�k,5.0,��
2020/12/28,15:40,0.682,0.975,0.618,1.228,0.866,0.384,0.679,0.639,�k,3.5,��
2020/12/28,15:50,0.681,0.976,0.618,1.229,0.865,0.385,0.679,0.639,�k,3.2,��
2020/12/28,16:00,0.682,0.976,0.619,1.228,0.862,0.384,0.681,0.639,�k,4.5,��
2020/12/28,16:10,0.681,0.977,0.617,1.227,0.863,0.384,0.679,0.637,�k,5.4,��
2020/12/28,16:20,0.680,0.976,0.618,1.226,0.863,0.383,0.682,0.640,�k,4.5,��
2020/12/28,16:30,0.681,0.977,0.618,1.227,0.864,0.385,0.679,0.640,�k�k��,3.8,��
2020/12/28,16:40,0.681,0.976,0.618,1.228,0.864,0.383,0.677,0.639,�k�k��,4.4,��
2020/12/28,16:50,0.681,0.973,0.618,1.228,0.864,0.383,0.678,0.639,�k�k��,4.8,��
2020/12/28,17:00,0.680,0.976,0.616,1.229,0.861,0.383,0.680,0.638,�k�k��,4.0,��
2020/12/28,17:10,0.681,0.976,0.616,1.229,0.864,0.384,0.678,0.638,�k�k��,3.2,��
2020/12/28,17:20,0.679,0.974,0.617,1.229,0.863,0.384,0.678,0.639,�k��,2.6,��
2020/12/28,17:30,0.682,0.975,0.620,1.229,0.864,0.383,0.678,0.638,�k��,2.9,��
2020/12/28,17:40,0.680,0.975,0.616,1.227,0.863,0.382,0.679,0.638,�k�k��,3.2,��
2020/12/28,17:50,0.681,0.975,0.618,1.228,0.863,0.384,0.680,0.638,�k�k��,2.3,��
2020/12/28,18:00,0.680,0.973,0.615,1.228,0.862,0.383,0.679,0.638,�k�k��,3.1,��
2020/12/28,18:10,0.679,0.975,0.617,1.228,0.864,0.383,0.679,0.639,�k�k��,3.3,�L
2020/12/28,18:20,0.681,0.974,0.618,1.228,0.863,0.384,0.679,0.637,�k,3.6,��
2020/12/28,18:30,0.683,0.976,0.618,1.227,0.863,0.384,0.678,0.639,�k,4.4,��
2020/12/28,18:40,0.682,0.973,0.618,1.229,0.864,0.383,0.679,0.638,�k�k��,3.4,�L
2020/12/28,18:50,0.682,0.974,0.619,1.228,0.863,0.383,0.678,0.636,�k�k��,2.8,��
2020/12/28,19:00,0.682,0.974,0.617,1.226,0.862,0.383,0.679,0.637,�k�k��,2.8,��
2020/12/28,19:10,0.681,0.973,0.618,1.227,0.863,0.383,0.679,0.639,�k�k��,2.3,��
2020/12/28,19:20,0.679,0.974,0.616,1.225,0.862,0.383,0.678,0.638,�k��,1.5,��
2020/12/28,19:30,0.680,0.973,0.618,1.228,0.864,0.384,0.679,0.639,���k��,1.7,��
2020/12/28,19:40,0.680,0.976,0.618,1.228,0.864,0.382,0.676,0.638,�k,1.2,��
2020/12/28,19:50,0.681,0.973,0.617,1.228,0.862,0.383,0.679,0.638,�k,1.2,��
2020/12/28,20:00,0.679,0.974,0.617,1.227,0.865,0.384,0.676,0.637,�k,1.7,��
2020/12/28,20:10,0.680,0.973,0.616,1.226,0.863,0.382,0.679,0.639,�k�k��,2.3,��
2020/12/28,20:20,0.679,0.974,0.616,1.226,0.863,0.383,0.678,0.638,���k��,2.6,��
2020/12/28,20:30,0.681,0.974,0.618,1.227,0.863,0.384,0.679,0.637,���k��,3.3,��
2020/12/28,20:40,0.680,0.975,0.616,1.228,0.862,0.382,0.679,0.639,���k��,4.4,��
2020/12/28,20:50,0.681,0.974,0.616,1.228,0.864,0.382,0.678,0.637,�k��,2.6,��
2020/12/28,21:00,0.681,0.972,0.617,1.226,0.863,0.383,0.678,0.639,�k��,2.6,��
2020/12/28,21:10,0.681,0.976,0.618,1.228,0.866,0.382,0.679,0.637,�k�k��,1.7,��
2020/12/28,21:20,0.680,0.972,0.617,1.228,0.863,0.382,0.678,0.638,�k��,2.3,��
2020/12/28,21:30,0.681,0.974,0.619,1.227,0.863,0.383,0.678,0.639,�k�k��,2.3,��
2020/12/28,21:40,0.679,0.972,0.617,1.230,0.861,0.384,0.678,0.639,�k,2.2,��
2020/12/28,21:50,0.680,0.974,0.618,1.229,0.861,0.383,0.676,0.639,�k,1.4,��
2020/12/28,22:00,0.679,0.974,0.617,1.228,0.862,0.384,0.677,0.638,�k�k��,0.8,��
2020/12/28,22:10,0.680,0.972,0.615,1.227,0.861,0.384,0.677,0.638,�쓌,0.6,��
2020/12/28,22:20,0.681,0.971,0.618,1.226,0.860,0.383,0.678,0.638,-,CALM,��
2020/12/28,22:30,0.682,0.971,0.617,1.225,0.862,0.382,0.678,0.637,-,CALM,��
2020/12/28,22:40,0.680,0.973,0.616,1.225,0.862,0.383,0.678,0.636,-,CALM,��
2020/12/28,22:50,0.682,0.972,0.616,1.226,0.862,0.382,0.677,0.637,���쐼,0.8,��
2020/12/28,23:00,0.680,0.972,0.616,1.227,0.862,0.383,0.677,0.637,�k,1.1,��
2020/12/28,23:10,0.680,0.973,0.616,1.230,0.861,0.381,0.676,0.639,���k��,0.9,��
2020/12/28,23:20,0.680,0.973,0.617,1.227,0.862,0.382,0.678,0.638,���쓌,1.4,��
2020/12/28,23:30,0.681,0.972,0.616,1.227,0.862,0.383,0.678,0.637,���쓌,1.5,��
2020/12/28,23:40,0.681,0.974,0.616,1.226,0.861,0.383,0.678,0.637,�쓌,1.5,��
2020/12/28,23:50,0.681,0.973,0.616,1.225,0.860,0.383,0.678,0.638,�쓌,2.2,��
